軌道要素
Epoch 2022 Aug. 9.0 TT = JDT 2459800.5
T 2021 Oct. 17.63718 TT Rudenko
q 1.7036614 (2000.0) P Q
n 0.08596957 Peri. 307.16801 -0.70544137 +0.70166768
a 5.0843981 Node 277.63956 -0.61407316 -0.67557486
e 0.6649237 Incl. 5.79508 -0.35393026 -0.22640908
P 11.5
From 751 observations 2010 Jan. 14-2022 June 23, mean residual 0".6.
|